Regional Weather Roundup
Issued by NWS

Home | Current Version | Previous Version | Graphics & Text | Print | Product List | Glossary On
Versions: 1 2 3 4 5 6 7 8 9 10 11 12 13 14 15 16 17 18 19 20 21 22 23 24 25 26 27 28 29 30 31 32 33 34 35 36 37 38 39 40 41 42 43 44 45 46 47 48 49 50
889
ASUS43 KLOT 261109
RWRIL

ILLINOIS REGIONAL WEATHER ROUNDUP
NATIONAL WEATHER SERVICE CHICAGO/ROMEOVILLE IL
600 AM CDT TUE SEP 26 2017

NOTE: "FAIR" INDICATES FEW OR NO CLOUDS BELOW 12,000 FEET WITH NO
SIGNIFICANT WEATHER AND/OR OBSTRUCTIONS TO VISIBILITY.

* THESE STATIONS ARE NOT UNDER NWS QUALITY CONTROL. THEY ALSO MAY NOT
  REPORT WEATHER SUCH AS PRECIPITATION OR FOG.

ILZ001-002-007-009-015-016-024-261200-
NORTHWEST ILLINOIS

CITY           SKY/WX    TMP DP  RH WIND       PRES   REMARKS
MOLINE         CLOUDY    69  66  90 E5        29.91S
STERLING*      CLOUDY    65  63  93 CALM      29.93S
SAVANNA*       CLOUDY    68  64  87 CALM      29.92R
$$

ILZ003-004-008-010-011-017-018-261200-
NORTH CENTRAL ILLINOIS

CITY           SKY/WX    TMP DP  RH WIND       PRES   REMARKS
ROCKFORD       CLOUDY    66  61  84 CALM      29.94F
FREEPORT*      MOCLDY    65  63  93 E5        29.95S
ROCHELLE*      CLOUDY    62  59  90 CALM      29.94S
DE KALB*       MOCLDY    65  60  83 CALM      29.95F
PERU*          PTCLDY    68  61  78 S5        29.94R
$$

ILZ005-006-012>014-019>023-261200-
NORTHEAST ILLINOIS

CITY           SKY/WX    TMP DP  RH WIND       PRES   REMARKS
CHICAGO-OHARE  PTCLDY    72  59  63 SW5       29.93R
CHICAGO-MIDWAY PTCLDY    73  60  63 S6        29.94R
AURORA         CLOUDY    64  61  90 CALM      29.95R
LANSING*       CLEAR     65  62  87 S3        29.95S
JOLIET*        CLOUDY    67  63  87 CALM      29.95R
WAUKEGAN       CLEAR     64  61  90 CALM      29.93R
DUPAGE AIRPORT CLOUDY    65  62  90 S3        29.94R
KANKAKEE*      PTCLDY    65  62  90 CALM      29.97S
WHEELING       CLEAR     68  61  78 CALM      29.94R
MORRIS*        CLOUDY    66  61  85 CALM      29.94R
ROMEOVILLE*    CLOUDY    67  61  80 S7        29.95S
NORTHERLY ISL    N/A     74  58  57 S6          N/A
$$

LMZ740>746-261200-
SOUTHERN LAKE MICHIGAN

STATION/POSITION SKY/WX   TEMP    WIND        PRES    VSBY  WAVE
                          AIR SEA DIR/SP/G                  HT/PER
                          (F)     (DEG/KT/KT) (MB)    (MI)  (FT/S)
SOUTHERN BUOY              73 71  150/  8/  8 1013.3          0
WILMETTE HARBOR            72 71  200/  6/  8   N/A           1
HARRISON CRIB              77     200/ 14/ 15   N/A
BURNHAM HARBOR             74                   N/A
CALUMET HARBOR             72     200/  5/  7 1013.4R
BURNS HARBOR               72     180/  8/ 12 1014.6R
MICHIGAN CITY              74     170/ 11/ 13   N/A
MICHIGAN CITY 6N           72 71  210/  8/ 10   N/A           1
ST. JOSEPH                 71 71  180/  6/  8 1014.0          0
$$

ILZ025>027-034>036-040-047-049-050-058-095>099-261200-
WEST-CENTRAL ILLINOIS

CITY           SKY/WX    TMP DP  RH WIND       PRES   REMARKS
QUINCY         CLOUDY    71  63  75 S7        29.93R
GALESBURG*     PTCLDY    68  64  85 SE3       29.94R
MACOMB*        PTCLDY    67  64  89 S5        29.95S
JACKSONVILLE*  MOCLDY    71  62  72 S6        29.95R
PITTSFIELD*    CLOUDY    69  63  82 CALM      29.96R
$$

ILZ028>032-037-038-041>044-048-051>054-059>061-261200-
CENTRAL ILLINOIS

CITY           SKY/WX    TMP DP  RH WIND       PRES   REMARKS
PONTIAC        MOCLDY    67  65  94 SE6       29.96S
BLOOMINGTON    CLOUDY    67  62  84 S6        29.98R
DECATUR        MOCLDY    68  61  78 S3        29.97S
PEORIA         CLOUDY    72  63  73 SW3       29.94R
LACON*         CLOUDY    67  64  89 CALM      29.93S
LINCOLN*       PTCLDY    68  64  86 CALM      29.96R
SPRINGFIELD    CLOUDY    73  63  70 SW5       29.96R
TAYLORVILLE    PTCLDY    66  62  85 S3        29.97R
$$

ILZ033-039-045-046-055>057-062-063-261200-
EAST-CENTRAL ILLINOIS

CITY           SKY/WX    TMP DP  RH WIND       PRES   REMARKS
CHAMPAIGN      MOCLDY    66  60  81 CALM      29.98S
RANTOUL*       PTCLDY    68  64  87 CALM      29.98R
MATTOON        PTCLDY    69  65  86 S6        29.97S
PARIS*         CLEAR     65  63  91 SE3       29.99S
$$

ILZ079-100>102-261200-
SOUTHWEST ILLINOIS

CITY           SKY/WX    TMP DP  RH WIND       PRES   REMARKS
ALTON          CLEAR     64  63  97 CALM      29.97R
BELLEVILLE     CLEAR     64  61  92 CALM      29.96R
CAHOKIA*       CLEAR     65  60  84 CALM      29.96R
SPARTA*        CLEAR     64  62  92 CALM      29.99R
$$

ILZ064>066-069>071-074>076-080>082-084>086-088>090-092>094-261200-
SOUTH-CENTRAL ILLINOIS

CITY           SKY/WX    TMP DP  RH WIND       PRES   REMARKS
CARBONDALE     CLEAR     63  63 100 CALM      29.98R FOG
CAIRO*         FOG       63  63 100 CALM      29.97R VSB 1/2
EFFINGHAM*     MOCLDY    64  63  94 CALM      29.99S
MARION         CLEAR     64  64 100 CALM      29.99R FOG
MT. VERNON       N/A     61  61 100 CALM      29.98R
CENTRALIA*     CLEAR     63  62  96 CALM      29.97S
SALEM*         PTCLDY    64  61  91 CALM      29.98R
METROPOLIS*    LGT RAIN  64  63  97 CALM      29.99R
$$

ILZ067-068-072-073-078-083-087-091-261200-
SOUTHEAST ILLINOIS

CITY           SKY/WX    TMP DP  RH WIND       PRES   REMARKS
LAWRENCEVILLE  CLEAR     66  65  96 CALM      29.99R FOG
FLORA*         CLEAR     65  64  93 CALM      29.98S
FAIRFIELD*     CLEAR     63  61  92 CALM      29.97R
HARRISBURG*    CLEAR     62  61  97 CALM      29.98R FOG
ROBINSON*      CLEAR     60  60  99 CALM      30.00R FOG
CARMI*         CLEAR     62  62  99 CALM      29.98R FOG
$$

ABBREVIATIONS USED IN REMARKS
   TC - TEMPERATURE IN CELSIUS
  WCI - WIND CHILL INDEX
   HX - HEAT INDEX
  VSB - VISIBILITY
$$





USA.gov is the U.S. government's official web portal to all federal, state and local government web resources and services.